Theta_e
339 349 352 349 349 352 354 357 355 354 352 332 335 342 345 357 352 353 354 352 351 349 348 346 344 344 348 346 346 347 347 348 346 343 342 350 352 351 354 353 353 352 352 353 352 351 349 345 345 346 345 346 344 344 344 345 347 349 351 350 351 350 349 349 351 352 350 350 351 350 350 350 351 352 352 352 352 351 351 352 350 349 352 354 353 350 350 350 351 351 351 351 351 351 351 351 351
350 352 350 348 350 353 356 360 353 342 337 329 338 343 346 357 351 351 352 352 350 346 345 343 345 347 346 343 343 345 348 346 344 345 346 350 350 351 353 352 352 352 353 353 351 350 349 345 344 345 344 345 345 344 345 347 348 349 351 352 351 350 349 348 351 352 350 349 351 351 351 351 352 351 351 350 349 349 349 350 350 348 350 352 352 352 351 350 350 352 352 352 353 352 351 351 351
351 351 349 349 351 354 357 359 349 332 330 330 337 348 352 354 350 352 353 351 347 344 343 344 348 349 345 344 345 346 347 344 343 343 345 349 349 351 353 352 352 352 353 353 350 348 348 346 345 346 345 345 346 345 346 349 350 349 350 350 348 349 351 351 352 352 350 349 350 351 352 352 352 351 350 349 348 349 348 349 349 349 349 349 350 351 353 350 349 351 351 351 352 351 350 350 351
349 351 349 351 354 356 359 359 352 333 329 329 333 349 355 351 353 354 352 349 345 344 344 347 350 349 348 347 346 346 346 344 345 345 345 349 349 351 353 352 352 352 352 352 352 349 349 349 346 347 347 347 348 348 349 351 351 350 350 350 348 350 353 352 352 352 351 350 351 350 352 352 352 351 350 348 348 349 348 348 348 349 349 349 349 350 352 351 350 350 349 350 350 350 350 350 350
348 351 350 353 358 359 360 357 351 340 335 333 334 350 356 351 355 354 350 346 344 344 345 349 350 348 347 347 346 345 345 344 346 347 348 350 350 351 352 352 351 351 351 352 352 352 352 350 347 347 348 348 348 349 352 352 351 351 351 352 351 351 352 353 352 352 352 351 350 350 352 352 351 351 350 348 347 348 347 348 347 347 350 350 349 349 351 351 350 350 349 349 349 349 349 349 350
347 352 354 355 358 358 359 348 341 343 349 350 343 351 355 351 355 353 350 347 345 345 346 349 349 347 346 347 346 344 345 344 346 348 349 350 350 351 352 351 351 351 351 352 353 353 352 350 350 350 351 350 350 351 352 352 351 352 351 352 352 351 351 353 352 352 353 350 350 351 351 351 350 350 350 350 348 347 347 348 347 347 349 350 348 348 351 352 350 351 349 348 349 349 348 348 349
346 354 356 356 357 358 358 343 337 344 356 361 350 352 354 353 354 352 352 349 346 346 346 348 346 347 348 345 346 347 347 347 347 348 349 350 351 352 351 351 351 352 352 353 353 353 351 350 352 352 352 352 351 351 351 352 352 352 352 352 352 351 351 352 352 351 352 351 350 351 351 350 350 350 349 350 350 349 347 348 346 346 348 349 347 346 350 352 351 351 349 347 348 349 348 349 349
348 355 356 358 361 358 354 343 346 351 355 361 355 354 355 354 353 352 353 350 349 348 347 348 345 349 348 346 348 348 349 349 349 348 349 350 351 351 350 350 350 351 351 351 353 354 352 350 352 352 352 352 350 350 350 351 351 352 352 351 352 351 351 351 352 351 351 352 351 351 350 350 349 349 348 349 350 350 349 348 346 344 346 348 347 345 351 352 349 350 350 348 348 348 349 350 350
353 357 357 360 361 353 347 345 352 356 357 360 358 358 356 354 353 354 354 352 350 348 348 347 346 351 349 348 348 347 349 350 349 349 349 349 349 349 348 348 349 350 348 350 353 354 353 351 352 352 352 351 350 350 350 351 351 352 351 351 352 351 351 351 352 351 351 352 351 350 349 349 347 347 347 347 350 350 349 349 347 345 346 347 346 348 352 351 348 349 348 349 349 348 348 349 350
356 357 359 362 354 344 339 343 351 357 360 357 358 359 357 355 356 356 356 354 350 348 349 346 346 350 347 348 348 346 348 349 348 349 348 348 348 348 349 349 348 348 347 350 354 354 352 351 352 352 352 351 350 350 350 350 351 351 350 351 351 351 351 351 352 351 351 351 351 351 350 348 345 345 346 346 348 350 349 348 347 346 348 348 346 349 352 350 348 348 347 348 348 348 348 349 349
357 355 358 357 350 341 335 341 350 358 360 356 358 357 356 356 356 356 357 355 351 349 348 346 348 348 347 348 348 348 349 347 347 348 348 348 348 349 349 349 348 347 349 352 354 353 352 351 351 350 351 351 349 349 350 350 350 350 349 351 351 350 350 352 352 351 351 351 351 351 351 348 346 346 347 347 348 348 347 347 347 347 348 348 348 350 351 350 348 348 348 348 347 347 348 350 349
358 356 357 354 353 350 341 346 352 358 359 356 358 357 357 355 356 357 357 355 352 351 347 348 349 345 348 349 348 349 348 346 347 348 348 348 349 349 348 348 348 348 350 353 354 353 352 352 351 350 350 350 348 347 348 350 350 350 349 350 351 350 351 351 351 351 351 350 351 351 351 349 347 347 348 348 348 347 346 346 347 348 348 349 350 351 351 350 349 349 349 349 349 348 349 350 350
356 357 356 352 356 357 348 351 355 358 356 356 359 358 356 354 357 357 355 355 354 353 348 347 346 344 347 348 348 347 347 347 347 348 348 348 348 348 348 348 349 350 352 353 354 353 352 352 352 351 349 350 349 347 348 350 350 349 350 350 350 350 351 351 351 351 350 350 350 351 349 348 347 347 348 348 347 347 347 346 347 348 348 349 350 351 351 350 349 349 350 350 350 349 350 350 349
354 356 357 354 356 358 353 352 354 351 350 359 360 356 357 356 357 354 353 355 356 354 348 346 344 345 347 348 348 344 346 348 348 348 348 348 347 347 347 348 350 352 353 353 353 353 353 351 352 351 350 352 351 350 350 350 351 350 350 349 350 350 350 350 351 350 350 350 350 349 348 347 346 347 348 347 347 347 347 346 346 347 348 351 352 351 348 344 345 348 350 350 350 350 350 348 347
351 354 357 355 353 356 355 354 353 348 349 360 359 355 357 355 353 352 353 355 356 351 346 347 343 346 345 345 346 344 347 348 348 349 348 348 347 347 348 350 352 353 353 353 353 353 353 352 353 352 352 352 352 352 351 350 351 350 350 349 349 349 349 350 350 350 350 349 349 350 348 346 346 346 346 346 348 347 348 347 346 346 347 349 349 347 343 339 340 343 347 349 349 349 348 347 347
348 353 357 352 348 349 352 357 355 349 351 359 357 354 357 355 353 354 354 353 353 348 347 347 342 345 342 340 345 345 348 348 349 348 348 348 347 348 349 351 351 352 353 353 353 353 353 354 354 353 353 352 351 351 351 350 350 351 350 350 349 349 349 350 350 350 349 350 349 348 346 346 347 346 346 347 346 344 345 345 344 345 344 342 342 341 340 337 337 339 343 347 347 346 345 345 345
346 355 359 352 350 349 352 358 356 351 354 360 357 354 357 357 355 353 352 351 350 350 350 345 342 344 342 342 345 347 348 349 349 348 349 348 347 348 350 351 350 352 353 353 354 353 354 354 354 353 353 351 350 351 352 351 350 351 350 350 349 350 350 350 349 349 349 350 348 346 345 347 347 348 349 349 345 341 339 339 338 338 337 336 336 336 337 335 335 337 341 344 344 343 344 344 344
348 356 357 353 356 356 356 360 356 356 358 359 357 355 357 357 355 352 352 353 351 350 348 345 346 346 346 348 347 348 349 350 350 349 349 347 346 348 350 350 350 350 352 354 354 353 354 353 354 354 353 352 351 352 352 352 352 352 352 350 350 350 350 349 348 349 350 350 348 347 348 348 348 350 352 351 348 344 341 338 336 335 334 334 333 333 333 334 335 337 340 341 341 341 344 346 346
349 352 352 353 358 358 357 357 355 357 358 357 357 355 356 357 354 353 356 356 351 349 348 346 348 348 347 348 348 349 350 351 350 348 347 346 346 348 349 350 349 349 350 352 353 353 353 353 354 354 354 354 353 352 352 352 353 353 352 352 352 350 351 349 347 349 350 349 350 350 351 351 351 350 349 348 347 344 342 340 339 339 337 335 332 333 333 333 335 337 339 340 341 343 346 347 347
347 348 351 354 357 357 357 356 355 358 358 358 357 355 357 356 352 354 358 355 351 349 347 346 348 348 345 346 349 351 351 352 349 347 346 346 348 348 349 349 349 348 349 350 350 352 353 353 354 355 355 355 353 353 352 352 353 352 352 352 352 352 352 352 350 351 351 350 352 352 351 351 350 347 345 345 344 343 342 343 344 344 343 340 339 341 339 338 339 339 341 343 344 346 346 346 346
346 348 350 353 354 355 359 356 355 357 357 358 356 357 358 354 352 355 356 352 351 349 343 344 346 347 345 345 350 352 352 351 349 348 347 347 349 349 348 349 348 348 349 349 350 352 353 353 354 355 355 354 353 354 353 352 352 351 351 352 353 353 353 353 352 352 352 352 352 351 351 351 349 348 347 346 346 346 347 347 348 349 349 348 348 348 346 344 345 344 345 346 346 346 346 347 347
346 349 348 352 354 357 360 356 356 357 356 358 357 357 358 353 353 355 355 352 349 347 343 343 344 345 345 346 349 351 352 352 351 349 348 349 349 349 349 348 349 348 348 349 351 353 353 353 355 355 354 354 354 354 353 353 352 351 351 352 352 352 352 352 352 352 353 353 351 349 349 349 347 347 348 347 348 349 350 350 350 352 351 350 350 348 347 348 348 348 348 348 347 346 346 347 347
344 349 350 353 355 359 359 357 358 358 356 359 356 356 355 353 355 354 355 355 350 346 343 342 344 347 347 349 349 349 349 351 352 350 349 350 349 349 349 348 349 348 348 349 351 353 354 354 354 354 355 355 355 354 354 353 353 352 352 352 352 352 352 352 352 351 352 352 351 349 347 346 345 345 347 348 349 350 351 352 352 352 351 349 349 348 349 349 349 349 349 349 348 347 346 346 346
345 349 352 353 357 360 358 357 359 357 357 358 355 355 354 353 356 355 355 353 348 345 344 344 347 349 349 348 347 348 350 351 351 351 351 350 350 349 349 349 349 349 349 349 350 352 353 354 354 354 354 355 355 354 354 354 353 352 352 352 352 352 351 351 351 351 352 352 352 350 346 344 344 345 346 348 349 350 352 352 352 352 350 350 350 349 350 350 350 350 350 350 348 348 346 346 346
348 351 355 355 358 359 356 356 359 357 357 357 355 355 355 355 355 355 354 350 346 345 345 346 347 348 348 346 345 347 350 352 351 351 352 351 350 350 349 349 349 349 348 349 350 351 353 354 354 354 354 354 353 353 353 353 352 352 351 351 352 351 351 351 350 351 350 350 351 350 347 344 344 344 346 348 350 352 353 353 352 352 351 351 350 350 351 351 350 350 350 350 349 349 347 346 347
351 353 357 358 358 356 356 358 359 359 359 357 357 358 358 356 355 355 354 350 347 345 345 345 346 346 346 345 345 349 350 352 352 352 352 351 350 350 350 350 350 349 348 349 350 351 353 353 353 353 353 353 352 352 352 352 351 351 351 351 352 351 350 350 349 348 348 347 349 351 350 347 345 346 349 351 353 354 353 353 353 352 352 352 352 350 351 352 351 351 351 350 351 350 348 347 347
353 353 356 359 358 356 357 360 360 360 360 357 358 360 359 355 356 357 353 351 348 345 347 346 345 345 345 344 346 351 352 351 352 352 352 351 351 351 350 350 349 349 349 349 350 351 353 352 353 353 353 352 351 351 351 351 351 351 351 350 350 350 349 349 348 346 347 346 348 351 352 351 349 349 352 353 354 354 353 353 353 353 353 353 353 351 351 352 352 351 352 352 352 351 348 347 347
353 353 358 360 359 357 357 360 361 360 361 359 358 360 359 355 356 358 353 351 348 346 348 346 345 345 346 346 346 351 353 352 352 351 352 351 352 351 350 350 349 350 349 349 350 351 351 351 352 352 352 352 351 350 351 351 351 351 350 348 348 350 349 347 347 347 348 348 348 350 352 353 353 353 355 355 354 354 353 353 353 354 354 353 353 352 352 353 352 352 352 353 353 351 348 346 347
354 355 361 362 361 360 358 360 358 359 359 358 359 358 358 359 356 357 354 351 350 349 348 346 345 345 346 346 346 349 353 354 353 351 351 351 351 350 349 349 349 349 350 350 350 351 351 351 351 351 352 352 351 350 350 350 349 349 349 347 349 350 349 347 347 348 348 348 350 351 353 354 355 355 355 355 354 354 354 354 354 354 354 353 353 353 353 353 352 352 351 351 351 349 346 346 346
358 360 360 359 358 359 361 360 359 360 358 357 358 350 352 359 357 357 354 351 353 351 349 347 345 345 345 346 345 348 352 354 354 352 352 351 351 351 349 349 348 349 350 350 350 351 351 351 351 351 351 351 351 350 350 349 348 348 348 348 349 349 347 347 347 347 348 348 350 352 353 354 355 356 356 356 355 353 354 355 355 355 355 354 353 353 353 352 353 352 352 351 349 348 346 346 345
360 360 355 354 350 352 360 359 360 362 355 355 358 348 350 360 358 357 354 351 354 352 351 348 345 346 345 345 345 346 351 353 354 353 352 351 351 350 350 349 349 350 350 350 351 351 351 351 351 351 351 351 351 350 350 349 349 348 348 348 349 348 346 345 345 346 348 349 350 352 354 355 356 356 356 357 356 354 354 355 355 355 355 354 353 354 353 353 353 353 353 351 348 347 346 346 346
354 348 342 344 345 351 363 359 359 362 354 355 356 349 355 364 358 357 354 352 355 352 351 349 345 346 345 344 345 345 348 352 354 353 352 352 350 350 350 349 350 350 350 350 351 351 351 351 351 351 351 351 351 351 351 350 350 349 349 349 349 349 347 347 347 347 349 351 351 352 355 356 355 356 356 357 356 354 354 355 355 356 355 355 354 354 354 353 353 354 355 353 350 349 346 345 345
346 341 333 336 339 344 356 359 358 360 357 357 356 353 360 365 359 356 355 353 355 353 352 349 346 346 345 344 343 345 347 350 352 353 353 352 351 350 350 349 350 350 351 350 351 351 351 351 351 350 351 351 351 351 352 352 351 351 350 349 350 350 349 349 350 350 350 352 352 352 355 356 356 356 356 356 356 355 355 355 355 356 356 355 354 354 354 354 353 353 355 354 352 351 347 345 344
332 337 332 336 339 336 343 355 359 357 358 359 358 359 360 361 360 356 355 356 355 354 353 349 347 346 346 345 342 344 348 348 350 353 353 353 352 350 349 349 349 350 351 351 351 351 350 351 351 351 351 352 351 352 352 352 351 352 351 350 351 351 350 350 350 351 351 351 352 353 355 356 356 357 356 356 356 355 355 356 356 357 356 355 355 354 354 354 354 355 354 354 355 352 347 346 345
327 330 329 331 337 337 339 350 357 358 359 359 357 358 359 359 360 357 355 357 355 355 353 349 347 346 346 345 342 344 347 347 350 352 353 352 352 350 349 349 348 349 350 350 351 351 351 351 351 352 352 351 352 352 352 352 352 352 352 351 352 352 351 351 351 352 352 351 352 354 355 356 356 357 356 356 357 356 356 356 357 358 356 356 356 355 355 355 356 356 353 354 356 353 349 347 346
334 333 331 329 330 336 346 352 357 359 359 359 358 357 359 359 359 358 356 356 356 355 354 351 347 346 346 344 342 344 345 346 348 352 352 352 353 351 350 349 348 348 349 350 351 351 352 351 352 352 352 351 352 352 352 351 352 352 352 351 351 352 352 352 352 352 352 352 351 353 355 356 356 357 357 357 357 356 356 356 357 358 357 357 357 357 356 356 357 357 354 355 355 352 350 347 346
338 335 332 332 329 335 351 357 356 360 357 357 359 357 359 359 358 359 357 354 356 355 354 353 348 348 347 343 342 344 345 345 348 351 352 352 353 352 350 349 348 348 349 351 351 352 352 352 352 353 352 352 351 351 351 351 352 352 351 350 350 351 352 352 353 352 352 353 354 355 355 356 357 358 358 358 357 356 357 357 358 358 358 357 357 358 358 358 358 357 356 355 352 350 349 347 345
334 330 328 329 330 336 353 357 353 359 357 354 360 359 358 360 358 359 358 356 356 355 354 354 350 349 347 344 343 344 344 345 348 351 352 352 352 352 351 349 349 349 350 351 351 351 352 351 352 353 353 352 351 351 351 351 352 352 351 350 348 350 352 352 352 352 352 354 356 357 357 357 359 359 359 359 358 357 356 357 358 358 359 358 357 358 358 359 358 356 355 353 351 350 348 347 347
327 327 326 325 331 338 349 357 357 358 356 353 359 357 356 361 358 357 359 357 355 354 354 354 351 350 349 345 343 344 345 346 347 349 351 351 352 353 352 351 349 349 350 351 351 351 351 351 352 352 353 352 352 352 352 352 352 351 350 349 348 348 350 352 353 353 353 354 355 357 358 358 359 358 358 359 358 358 357 357 358 358 359 358 357 358 358 358 358 357 355 352 351 350 348 348 348
325 326 322 322 331 332 332 348 358 357 356 356 358 356 356 361 358 357 358 356 356 355 356 355 352 351 349 344 343 344 345 346 347 347 348 351 352 353 353 351 349 348 349 350 351 351 350 351 352 353 353 352 353 353 353 353 353 353 353 351 351 350 351 352 353 354 354 355 354 355 357 358 357 357 358 358 357 358 358 358 358 359 359 357 357 358 358 357 357 357 356 355 352 351 349 349 349
324 327 324 323 330 330 331 346 357 356 356 361 357 349 352 360 359 360 358 354 354 354 354 355 353 351 348 344 343 343 345 347 347 345 347 350 352 353 353 352 351 349 348 349 350 351 350 351 353 354 354 352 352 354 354 353 353 354 354 353 353 353 352 352 352 351 352 354 354 354 355 356 357 357 358 358 358 358 358 358 358 359 358 357 357 358 358 357 356 356 357 357 354 352 350 350 350
319 326 328 327 330 336 343 352 352 342 341 356 356 340 344 358 360 362 360 355 354 354 354 355 354 353 350 346 343 343 345 346 346 346 347 350 351 352 354 353 351 350 348 348 349 351 350 350 353 354 354 354 353 353 354 354 353 353 354 353 352 352 352 351 351 349 350 352 353 354 354 355 356 356 357 358 358 358 359 359 359 359 358 357 358 359 358 356 356 356 357 357 356 355 354 352 351
315 325 332 333 336 340 345 350 346 335 335 354 357 338 338 349 356 361 360 358 357 355 355 354 354 355 351 347 344 342 343 344 344 346 346 349 350 351 354 353 352 350 348 348 348 349 351 351 353 354 355 355 354 354 354 354 354 353 353 352 350 351 351 351 351 350 350 352 354 355 354 355 355 355 357 358 359 359 359 359 359 359 358 358 358 358 358 356 356 357 358 357 357 358 357 354 352
317 331 337 335 338 343 346 346 342 339 342 351 356 347 338 339 351 361 360 359 359 357 356 355 355 354 351 347 345 343 342 343 343 345 345 347 350 351 352 353 352 350 349 348 347 348 350 352 354 355 356 356 355 355 355 354 354 354 353 352 351 351 350 351 352 352 353 354 355 356 356 355 355 356 357 359 359 359 359 360 360 360 359 358 358 358 358 357 357 358 359 359 359 359 358 357 355
324 338 339 336 340 345 346 342 338 344 342 335 342 351 339 335 348 360 360 360 360 357 356 356 355 354 352 348 346 343 342 343 343 343 345 347 349 350 350 352 352 350 349 348 348 348 350 353 355 356 356 356 356 356 356 355 354 354 353 352 352 352 351 351 352 352 353 354 354 356 357 357 357 356 357 357 358 358 359 361 361 360 360 358 357 358 358 358 358 358 358 359 359 359 358 358 358
329 337 337 338 341 345 346 339 336 341 338 328 335 346 338 333 343 354 358 359 361 360 354 354 356 353 353 350 346 345 342 343 343 343 345 347 347 348 349 350 351 350 349 349 348 349 350 353 355 356 356 356 356 356 356 355 355 355 353 353 353 353 353 354 354 354 355 355 355 357 358 358 357 357 356 356 358 358 358 360 361 360 359 358 358 358 358 358 358 358 358 359 359 359 358 358 358
332 335 333 334 338 344 342 336 336 334 331 331 338 346 340 334 339 349 356 357 361 364 356 352 355 354 353 351 346 344 342 342 343 342 344 346 346 347 347 349 350 351 350 349 348 349 350 352 355 356 356 356 356 356 356 355 355 354 354 354 353 354 355 356 356 356 356 357 356 356 357 357 358 357 356 356 357 356 358 360 360 359 359 359 358 358 357 357 357 357 358 359 360 359 358 358 357
333 333 330 328 329 335 332 331 337 329 325 334 343 348 344 335 338 349 356 355 358 364 362 354 354 355 353 351 347 344 342 343 343 343 343 344 346 346 347 348 350 351 351 349 349 349 351 352 355 356 356 356 356 356 356 355 355 354 354 354 354 355 356 356 357 357 357 357 356 357 358 358 358 357 356 357 356 355 358 360 360 359 359 359 359 360 359 358 357 357 357 359 360 359 359 358 357
331 329 325 320 322 328 326 327 332 325 325 339 344 345 343 335 339 349 355 355 356 361 364 356 352 354 353 351 349 345 342 342 342 344 343 343 346 346 346 348 351 352 352 351 350 350 351 353 355 356 357 357 356 356 356 356 355 355 354 355 354 355 355 356 357 357 356 357 356 358 359 358 358 358 357 356 354 355 358 360 361 361 361 360 360 361 360 360 359 358 358 358 358 359 359 359 358
328 324 320 317 319 323 322 324 326 323 327 340 344 343 338 331 338 349 349 352 353 356 362 359 351 352 353 351 350 346 342 341 342 343 344 344 346 347 347 348 352 353 352 352 351 350 352 353 355 356 357 357 357 356 356 356 357 356 355 355 354 355 356 356 356 356 356 356 357 357 357 356 356 357 356 355 355 355 357 359 361 361 361 361 360 360 360 361 361 359 359 360 358 359 360 359 359
326 326 324 318 316 319 321 323 324 322 326 336 343 340 330 327 341 351 347 347 352 353 359 361 355 350 352 352 350 346 342 341 342 343 344 345 346 347 348 349 351 352 352 352 351 351 352 354 355 356 357 357 357 356 356 357 357 357 356 355 354 355 355 355 356 356 356 357 356 356 356 356 356 356 356 356 356 357 358 360 361 361 362 362 360 360 359 360 363 361 360 361 359 359 360 360 360
327 330 327 318 317 320 322 324 323 324 328 331 334 333 330 336 350 353 347 348 353 354 355 358 356 350 349 352 350 347 344 341 343 344 344 346 347 348 348 349 351 352 351 351 352 352 354 354 355 356 357 357 357 357 357 357 357 357 357 356 355 355 356 355 356 357 357 356 356 356 357 357 356 356 357 358 357 358 359 360 360 359 362 362 361 360 359 360 363 362 361 363 359 357 359 360 360
331 330 323 324 329 327 325 329 329 325 327 328 327 328 331 338 346 349 349 349 353 355 354 355 355 351 348 351 352 349 345 343 343 344 346 347 348 348 348 349 350 350 350 352 352 354 355 356 356 356 356 356 357 357 357 357 357 357 357 358 356 356 356 355 355 357 356 356 356 356 356 357 357 357 357 357 357 358 359 359 359 358 360 361 360 360 359 361 364 361 361 364 361 358 359 360 359
333 329 325 331 336 332 332 336 335 326 325 326 324 325 326 327 336 350 354 350 350 353 354 356 357 354 349 349 353 351 345 344 345 345 348 349 349 349 349 350 350 349 349 352 354 355 357 357 356 356 356 356 356 357 356 356 357 357 357 358 357 356 356 355 354 355 356 356 356 356 355 356 357 357 356 356 357 358 359 360 360 359 360 361 361 360 359 362 363 360 361 362 361 359 360 359 358
335 334 335 333 329 328 329 330 330 325 324 326 323 324 324 323 332 347 353 352 351 350 353 355 357 357 353 349 350 351 345 345 346 347 349 350 350 350 350 351 351 351 350 353 355 356 358 357 356 355 355 355 355 355 355 355 356 356 356 357 356 355 355 355 354 355 356 356 356 356 355 356 356 357 357 357 357 357 358 359 360 359 359 359 360 359 359 362 362 359 359 359 358 360 360 359 359
335 334 335 333 330 329 327 327 326 323 323 325 324 323 323 327 340 350 353 356 355 351 352 353 354 357 356 352 348 350 349 347 348 350 350 350 350 351 352 352 353 354 352 353 355 356 357 356 355 355 355 355 354 354 354 355 355 355 355 356 356 356 355 355 356 357 356 356 356 355 355 355 356 356 357 357 357 356 356 358 358 357 357 357 358 357 357 360 361 360 359 357 358 361 361 360 360
333 328 330 331 330 329 328 328 325 322 322 323 325 322 321 335 355 358 356 357 354 352 353 353 351 353 356 356 351 350 352 350 349 350 350 350 350 349 351 353 354 354 354 354 355 355 355 355 355 356 354 354 354 354 354 356 356 355 355 355 356 355 355 355 355 356 357 356 356 356 355 356 356 357 357 357 357 357 357 357 356 356 356 357 359 360 358 358 361 362 361 358 359 362 362 359 359
330 330 333 333 330 327 325 325 322 320 320 319 323 323 324 341 356 354 355 355 351 353 352 352 351 350 354 357 354 353 353 350 348 349 347 349 350 348 350 354 354 354 354 355 355 355 354 354 355 356 355 354 354 354 354 356 357 356 356 356 356 355 355 354 355 356 356 355 355 356 356 356 357 357 357 357 357 357 357 357 357 357 358 358 360 361 359 358 359 360 361 359 358 361 362 360 359
Wind_Speed
10 8 7 4 3 2 3 3 1 3 3 5 6 5 6 5 7 9 9 8 8 7 4 8 9 4 2 3 4 4 5 5 4 3 4 7 12 14 11 13 15 15 13 11 9 8 7 7 7 8 9 8 10 9 10 10 9 9 10 10 11 13 13 12 12 10 10 15 15 14 14 13 13 13 13 12 12 12 14 14 14 16 12 9 11 14 16 16 17 15 15 16 17 19 19 19 18
9 7 6 4 3 3 1 2 2 4 4 6 6 6 8 5 7 10 10 7 7 8 9 10 8 4 2 3 4 5 8 9 8 7 8 12 14 12 12 13 14 14 13 11 10 9 8 8 7 8 9 7 7 8 9 10 9 10 10 10 11 12 12 11 11 11 12 14 14 13 13 13 13 13 13 13 13 13 14 14 15 16 14 10 9 11 14 15 16 15 15 15 17 18 19 19 18
8 6 5 3 2 3 1 2 3 4 5 6 7 7 8 7 10 11 8 8 10 11 11 10 7 3 2 5 4 4 7 8 11 11 10 12 11 10 12 13 13 13 13 12 10 9 9 8 8 9 9 8 7 8 9 9 9 9 9 9 11 12 11 11 11 13 14 14 14 13 12 13 13 13 13 13 14 15 15 15 15 15 14 13 9 8 11 14 15 15 15 15 16 17 18 18 18
7 5 4 3 1 2 2 2 3 3 6 5 7 7 7 9 12 10 9 10 11 11 11 9 6 3 2 6 5 5 8 8 11 11 9 10 11 13 13 13 13 13 13 11 10 9 9 8 7 8 8 9 9 9 9 8 9 8 7 9 10 11 11 11 12 15 15 14 14 14 12 13 13 13 14 14 15 15 15 15 15 14 13 13 11 8 8 12 15 16 16 16 16 17 17 18 18
6 4 3 3 2 1 2 2 3 1 5 4 7 8 8 11 12 10 10 11 10 11 10 6 5 4 5 8 4 4 8 8 11 11 10 12 14 16 14 13 13 13 13 11 11 9 10 9 7 8 7 8 8 9 9 8 8 8 8 10 10 11 10 9 12 15 15 14 13 14 13 12 13 14 14 15 16 15 15 15 16 15 12 12 13 9 7 9 13 15 17 18 18 17 17 18 18
5 3 3 4 2 1 3 3 2 4 5 3 8 9 10 12 11 12 10 10 10 10 8 3 5 8 7 8 7 8 7 8 10 10 12 14 15 16 14 13 13 13 12 11 10 9 11 11 9 10 8 8 8 8 9 8 8 9 8 9 9 10 9 9 11 13 14 13 13 13 12 12 13 14 14 14 15 16 15 15 17 15 11 11 12 10 7 7 11 13 16 18 18 18 17 18 17
4 2 2 4 3 2 5 4 4 6 4 4 8 10 11 12 11 12 11 10 10 9 6 3 6 8 7 6 8 10 8 8 9 10 13 16 16 15 14 12 13 13 12 11 10 10 11 11 10 11 10 9 9 8 8 8 9 9 8 9 9 9 10 9 10 12 13 14 13 12 12 13 12 13 13 13 14 16 16 15 17 16 12 12 12 10 7 6 9 12 15 17 18 17 17 18 16
4 3 2 3 3 4 4 5 6 5 5 5 8 11 11 12 10 11 11 9 9 8 6 5 6 6 6 4 7 9 9 10 11 14 16 17 15 14 13 11 12 11 11 10 10 10 9 10 9 9 10 9 8 8 8 8 9 9 9 9 9 9 10 10 11 12 12 13 13 12 12 13 13 12 12 12 13 15 16 16 16 17 14 12 12 11 6 4 7 12 13 15 17 16 17 17 15
6 4 2 3 2 3 3 6 6 6 8 7 8 10 11 10 9 10 10 8 8 8 7 6 3 4 8 8 9 8 9 12 15 16 16 16 15 13 12 11 11 11 11 10 10 10 9 9 9 9 9 9 9 8 8 9 9 9 9 10 9 9 10 10 11 12 12 13 14 13 13 13 13 12 13 13 13 15 16 17 17 17 14 12 12 10 6 4 6 11 13 14 15 15 16 16 15
5 3 2 3 2 4 5 6 6 7 8 8 8 9 10 8 7 8 8 8 8 8 7 5 3 6 9 10 9 7 9 13 16 16 15 15 14 12 11 10 10 10 10 10 10 10 9 10 10 10 9 8 8 8 8 9 9 9 9 10 9 10 10 10 11 12 12 13 13 13 13 14 14 14 15 14 13 15 16 18 18 18 14 12 12 10 7 5 7 10 12 13 13 15 15 15 15
3 3 3 3 3 4 5 7 6 7 8 8 9 8 7 6 7 7 8 8 7 7 8 5 6 10 10 10 8 7 11 14 15 15 14 13 12 12 11 10 10 10 10 10 10 9 9 9 9 9 9 8 8 9 8 9 10 9 9 10 10 10 11 11 11 12 13 13 13 13 14 14 14 15 16 16 15 16 16 18 19 18 15 13 12 10 8 7 8 9 11 12 13 14 14 14 13
3 1 3 2 2 2 6 8 7 9 9 8 8 6 4 6 6 8 8 8 7 7 7 5 6 9 9 9 7 9 13 13 14 14 13 12 12 11 10 10 10 9 9 9 9 9 8 8 9 9 8 8 8 8 8 9 10 10 9 10 10 11 11 12 11 12 13 13 13 13 14 14 14 15 15 17 17 17 16 16 18 18 16 13 11 10 8 8 8 9 10 11 12 12 13 12 11
3 2 4 2 2 1 7 8 8 9 8 7 7 6 4 5 5 6 7 7 7 6 6 5 6 7 8 9 7 10 12 13 14 14 13 12 11 10 10 10 10 9 8 8 9 9 8 8 10 9 9 9 8 8 8 9 10 11 10 10 11 11 11 12 12 12 13 13 13 14 14 14 15 14 15 16 17 17 15 15 16 16 15 12 10 9 8 8 7 8 9 10 10 10 11 9 9
3 3 5 1 3 2 5 6 8 7 7 7 7 7 4 3 4 5 6 8 6 4 6 6 6 6 9 9 7 8 11 14 14 14 13 11 11 10 10 10 9 8 7 7 8 8 7 8 10 9 9 9 9 9 9 9 10 12 11 11 12 11 12 12 13 13 13 14 14 14 14 15 16 15 16 16 16 15 14 13 13 14 14 10 8 9 8 8 7 7 8 8 8 8 9 8 7
3 3 4 1 4 3 2 4 7 5 7 9 7 8 6 4 5 5 4 6 6 5 6 6 4 4 8 9 8 10 14 16 15 14 13 11 11 10 10 10 9 8 7 7 8 7 7 8 9 9 9 9 10 9 9 9 9 11 11 12 12 12 13 13 13 13 13 14 14 14 13 15 16 17 17 15 15 14 13 12 11 11 10 9 8 8 8 8 7 7 6 6 6 6 7 7 6
3 3 3 3 5 4 3 4 6 5 7 9 8 8 8 6 4 4 4 4 8 6 3 5 3 1 5 8 11 16 18 17 15 14 14 12 11 10 10 9 9 8 7 7 7 7 6 7 9 8 9 9 10 10 10 10 10 11 12 12 13 13 13 13 14 13 14 14 14 15 15 16 16 17 17 15 14 13 13 11 10 9 8 8 8 7 7 7 7 6 5 5 5 6 6 6 6
3 3 3 2 4 4 4 5 4 3 7 10 10 9 8 8 5 5 5 6 9 7 3 4 4 2 6 11 17 21 19 17 16 15 14 12 11 10 9 8 8 8 7 7 7 6 6 7 9 9 9 9 11 11 11 11 11 12 12 13 14 13 14 14 14 14 14 13 14 16 17 16 15 16 16 15 14 13 12 11 10 9 8 9 8 8 7 7 6 6 5 5 5 5 5 6 6
4 3 2 1 3 1 1 4 3 2 7 10 9 9 8 9 7 6 7 8 8 7 6 7 7 8 12 18 21 21 19 17 16 15 13 11 10 9 9 8 7 7 8 8 7 6 6 8 9 9 10 10 11 11 11 11 11 12 12 13 13 13 14 14 14 13 13 13 13 13 14 14 14 14 14 14 14 13 12 11 11 11 11 11 10 9 7 7 6 6 6 5 5 5 6 4 4
3 3 2 3 5 2 0 3 4 2 7 10 8 8 7 9 9 7 7 9 9 9 9 9 12 13 15 19 21 20 18 17 15 13 12 10 9 9 8 8 7 7 8 8 8 6 6 8 9 10 10 10 10 11 11 11 12 12 11 13 13 13 13 13 13 12 12 12 11 11 11 12 12 13 14 14 13 13 12 13 13 14 14 13 12 10 9 8 7 7 6 6 6 6 5 3 2
2 2 2 5 5 3 3 3 4 2 5 10 8 8 7 9 9 6 6 9 9 7 9 10 12 15 16 18 19 19 17 15 14 12 11 10 9 9 8 8 7 7 7 8 8 7 7 9 10 11 11 10 11 11 11 12 12 11 11 12 12 12 12 12 13 12 11 11 11 10 11 12 13 13 13 13 12 11 12 13 13 13 12 12 12 9 8 8 8 7 7 6 5 4 3 2 3
2 3 2 5 4 0 5 3 4 2 5 9 9 8 8 8 7 6 6 6 6 6 8 9 12 17 18 17 18 18 16 15 13 12 11 10 9 8 8 7 7 7 7 7 8 8 7 9 10 10 11 10 11 11 12 12 12 11 11 12 12 12 12 12 11 11 11 10 10 10 10 11 12 11 10 10 10 10 10 10 10 10 8 9 9 8 7 7 7 6 5 5 3 3 3 3 3
2 1 3 4 4 2 5 2 4 5 7 9 9 9 8 8 6 7 6 2 2 5 8 9 12 17 18 17 17 16 15 14 13 12 11 10 9 8 8 8 7 7 6 7 8 8 8 9 10 10 11 11 11 11 12 12 12 12 11 11 12 12 12 12 11 11 10 10 10 10 11 11 11 10 10 9 9 9 8 8 8 8 7 7 7 8 7 6 6 5 4 4 3 3 4 4 4
3 2 4 4 4 4 2 3 6 6 8 9 9 8 8 8 7 7 4 4 3 6 8 10 12 16 18 17 16 15 14 13 13 12 10 10 9 8 8 8 8 7 7 8 9 9 9 9 9 10 11 12 12 12 12 12 12 12 11 11 12 12 12 12 11 11 10 10 10 10 10 10 11 10 10 9 8 8 7 7 7 7 7 7 7 7 7 6 5 5 5 4 4 4 5 5 5
3 2 4 4 5 4 0 5 7 8 8 9 8 8 10 9 7 6 4 4 5 8 9 11 14 17 17 16 14 13 13 12 12 11 10 9 9 8 8 8 8 7 8 9 9 10 10 10 10 10 11 12 13 13 13 12 12 13 12 11 12 12 11 11 11 11 10 9 9 9 10 10 10 10 9 8 8 7 6 6 6 6 7 7 6 7 7 5 5 5 5 5 5 4 6 6 6
2 2 4 3 5 5 2 5 7 8 7 7 8 8 9 6 6 7 4 6 8 10 10 12 15 16 15 14 13 13 12 12 12 11 10 8 8 9 8 8 8 8 9 9 10 11 11 10 10 11 12 12 13 13 13 13 13 13 13 12 12 11 11 11 11 11 10 9 9 8 9 10 10 9 8 7 7 6 5 5 5 6 6 6 6 6 6 5 5 5 5 5 5 4 6 6 5
2 3 3 4 6 4 1 4 6 8 5 6 9 8 6 4 5 7 6 7 10 11 12 13 14 15 13 13 13 12 11 11 12 11 10 9 9 9 8 9 9 9 9 9 10 11 11 11 11 11 12 12 12 13 13 13 13 13 13 12 12 11 11 12 11 11 11 10 10 9 8 8 8 8 7 6 6 5 4 4 5 5 6 5 5 5 5 4 4 5 5 5 5 5 6 6 5
4 4 5 6 9 5 1 5 7 7 5 4 8 7 5 4 4 4 6 8 10 12 12 13 14 14 13 12 12 11 11 11 11 11 10 9 9 9 9 9 9 10 9 10 11 11 11 11 12 12 11 11 12 13 13 13 13 13 13 12 11 11 12 11 11 11 11 10 11 10 9 7 7 7 6 5 5 4 4 4 5 5 5 5 4 5 4 4 4 5 6 5 5 5 6 6 6
4 4 6 7 9 8 4 5 5 4 4 0 5 6 5 5 3 3 9 10 10 12 13 13 13 13 12 12 11 10 10 10 10 10 10 9 9 9 9 9 9 10 10 10 11 11 12 12 12 12 11 11 12 13 13 13 13 13 13 12 12 12 11 11 11 11 11 11 11 10 8 6 6 6 5 5 4 4 4 4 4 4 5 4 4 4 4 4 4 5 6 5 5 5 6 6 6
4 2 3 7 8 7 6 4 2 3 3 2 2 5 5 7 5 5 12 11 10 11 12 14 13 12 12 11 10 8 9 9 9 9 9 9 8 9 10 10 10 10 10 10 11 12 12 12 12 12 12 12 12 12 12 12 13 13 12 12 12 11 11 11 11 11 11 11 10 8 7 6 6 5 4 4 3 3 4 4 4 4 4 4 4 4 4 4 5 6 5 5 5 5 7 6 5
3 2 3 5 5 4 5 5 3 4 3 2 2 4 5 10 9 7 11 11 11 11 11 13 12 11 11 10 9 8 9 9 9 8 8 9 8 9 10 10 10 10 10 11 12 13 12 12 12 12 12 12 12 12 12 12 12 12 12 12 11 11 11 11 12 11 11 10 9 8 6 5 4 4 3 3 2 3 4 4 4 5 4 4 4 4 4 4 5 6 6 5 5 6 7 6 6
3 2 4 3 1 1 3 5 6 6 4 1 3 4 4 9 10 9 11 12 13 11 11 12 11 11 10 10 10 9 9 9 9 9 8 8 9 9 11 11 10 10 11 11 12 13 12 12 12 12 13 12 12 11 11 11 11 11 11 11 11 11 11 11 12 11 10 9 8 7 6 5 4 3 2 2 2 2 3 4 4 4 4 3 4 4 4 5 6 6 6 5 5 6 6 6 6
3 2 3 1 2 2 4 5 7 5 4 4 5 4 2 6 9 10 10 12 13 11 11 12 12 12 11 10 10 9 9 9 9 9 9 9 9 10 11 12 11 10 11 12 13 13 12 12 12 13 13 12 12 11 11 11 11 11 11 11 11 10 10 10 10 10 9 8 8 7 6 5 3 2 2 1 1 2 3 4 4 4 4 3 4 4 4 5 6 6 7 6 5 4 4 6 6
2 2 2 1 1 3 5 5 5 4 5 8 8 5 1 2 6 9 11 13 13 11 11 12 12 13 11 10 9 9 9 9 9 9 10 9 9 10 11 12 11 11 12 12 13 13 13 13 12 14 14 13 12 11 11 10 10 10 10 11 10 9 9 9 9 9 9 8 7 7 6 5 3 2 2 1 1 2 3 4 5 4 4 3 3 4 4 5 6 6 7 6 5 3 3 6 5
3 1 1 1 1 1 2 3 4 4 5 7 9 7 2 2 5 9 11 13 13 12 12 12 12 12 11 10 9 9 9 9 9 10 11 10 9 10 11 12 12 11 12 13 13 13 13 13 12 13 13 13 12 11 11 10 10 11 10 10 9 8 8 8 8 8 8 8 8 7 6 5 4 3 2 2 2 2 3 4 4 4 4 4 3 3 4 6 6 6 6 6 6 4 4 5 5
2 2 2 2 0 2 3 3 3 5 5 5 8 9 7 4 5 8 10 12 13 12 12 12 12 12 11 10 10 10 9 9 9 10 12 11 10 11 11 12 12 12 12 13 13 13 13 13 12 13 13 13 12 11 11 10 10 10 9 10 9 7 7 7 7 8 8 8 8 7 6 5 4 4 3 3 2 2 3 4 4 4 4 4 4 4 5 6 7 8 7 6 5 4 4 4 4
4 4 4 4 2 2 4 4 2 2 4 5 6 9 9 7 7 8 9 12 13 12 11 10 11 12 11 10 9 10 10 9 10 11 12 12 11 11 12 13 13 12 12 13 13 13 13 12 12 12 12 12 12 12 11 11 10 10 10 10 9 8 7 7 7 7 7 7 8 7 6 5 5 4 3 3 2 2 2 3 4 4 4 4 4 5 5 5 7 7 7 6 5 3 3 3 3
6 6 4 4 3 1 4 3 3 1 4 3 5 7 7 8 8 9 10 12 13 13 13 11 11 11 11 11 11 11 10 10 11 12 12 12 12 12 12 13 14 13 12 13 13 13 13 13 13 13 12 12 12 12 12 11 11 10 10 10 10 9 8 7 7 7 7 7 7 6 6 5 4 3 2 2 2 2 2 3 4 4 4 4 5 5 5 5 5 5 5 5 4 4 3 4 4
7 6 5 3 2 1 4 3 3 2 4 1 3 6 7 8 9 9 9 12 14 14 13 13 13 12 11 12 12 11 10 10 11 11 12 12 12 13 13 13 14 15 14 14 14 13 13 13 13 13 13 13 13 12 12 11 10 10 10 9 9 8 8 7 7 7 6 7 7 5 5 4 3 3 2 2 2 2 2 2 3 4 4 4 4 4 4 4 4 5 5 4 4 4 4 5 5
7 5 5 3 1 0 2 2 3 2 4 0 3 4 5 6 7 8 8 11 12 13 13 13 13 13 11 12 12 12 11 10 11 11 12 13 13 14 14 13 15 15 15 15 15 14 14 14 13 13 13 13 13 12 12 11 10 9 8 8 7 7 7 6 6 6 6 6 6 5 4 3 3 3 2 2 2 2 2 2 3 4 4 3 3 3 3 3 3 4 5 5 5 2 3 5 5
8 5 5 4 1 2 1 2 3 2 4 2 0 3 3 4 6 6 8 9 7 7 10 11 12 12 12 13 12 12 12 11 11 11 12 13 14 15 14 14 15 16 16 16 16 15 15 14 14 14 14 13 13 12 12 11 10 9 7 7 6 5 5 5 5 6 5 5 6 5 4 4 3 3 3 2 2 2 2 2 2 3 3 3 3 2 2 2 2 3 4 5 6 5 3 4 4
9 8 7 6 4 4 3 1 1 3 5 4 4 3 2 5 7 6 6 6 3 5 10 11 11 11 11 12 13 13 12 11 12 11 12 13 14 15 15 15 16 16 17 17 17 16 15 15 15 14 13 13 13 13 12 11 10 9 7 7 6 4 5 6 6 7 7 6 6 6 5 5 4 4 3 3 2 2 2 2 2 2 3 2 2 1 1 1 1 2 3 4 4 6 5 4 3
8 8 7 6 4 3 2 1 2 4 4 5 5 4 1 5 8 8 6 6 8 9 11 13 12 11 11 12 13 14 13 11 11 11 12 13 14 15 15 15 16 17 17 17 17 17 16 16 16 15 14 13 13 14 13 12 11 10 9 8 8 7 7 7 7 7 7 6 6 6 5 5 5 4 4 3 3 2 2 2 2 2 2 2 1 1 1 1 0 2 3 3 4 5 6 5 3
7 3 1 2 2 2 2 3 4 5 1 4 3 6 1 3 8 9 8 9 13 12 13 14 11 10 12 12 12 13 13 12 11 11 12 13 14 15 16 16 17 17 17 17 17 17 16 16 17 16 14 13 13 14 14 13 12 11 10 9 8 8 7 7 6 6 6 5 5 5 5 5 5 4 4 4 3 2 2 1 1 1 1 1 1 1 1 0 1 2 3 3 4 4 4 5 5
5 3 1 3 3 2 2 4 5 4 2 2 4 5 4 2 5 9 10 11 14 15 15 14 12 12 13 13 13 13 14 13 12 12 12 13 14 15 16 17 17 17 17 17 17 17 17 16 17 17 15 14 13 14 15 14 12 11 11 9 8 7 7 6 6 5 5 4 4 4 4 4 5 4 4 4 4 2 2 1 1 1 1 1 1 1 0 1 2 2 2 2 2 3 3 4 5
4 2 1 3 2 2 2 4 5 3 4 4 4 4 4 2 4 8 11 11 13 16 17 15 16 16 14 14 15 14 14 14 13 13 13 14 15 16 16 17 16 16 17 17 17 17 17 17 17 17 15 14 14 14 14 14 13 11 10 10 8 7 6 5 6 5 4 4 4 4 3 3 4 4 4 4 4 3 3 2 1 1 1 1 1 1 0 1 1 1 1 1 2 2 2 3 3
4 3 4 2 2 3 2 5 4 3 6 6 2 6 4 2 5 7 9 9 11 14 15 15 16 16 15 15 16 15 14 13 13 13 13 15 16 16 16 16 16 16 16 17 17 16 17 17 17 17 16 15 14 14 14 14 13 11 11 10 8 7 6 5 5 4 4 4 4 4 4 3 3 4 5 5 4 4 4 3 2 2 1 1 1 1 1 1 0 0 0 1 2 2 2 2 3
5 7 7 5 5 4 3 4 3 5 6 3 2 6 5 3 4 7 8 9 11 11 12 15 17 16 16 15 15 15 14 13 13 13 14 16 16 16 16 16 16 15 15 17 17 17 17 17 17 18 17 15 15 15 15 15 14 12 11 10 9 8 6 5 5 5 5 5 5 5 4 4 4 4 4 4 5 5 4 4 3 2 2 2 2 2 2 2 1 1 1 0 1 2 2 3 4
7 8 6 5 5 4 5 5 4 7 5 1 1 5 6 4 2 6 9 9 10 11 12 16 19 18 17 15 15 15 14 14 13 12 13 15 16 17 17 16 16 15 15 17 18 17 17 17 17 18 17 16 15 16 16 15 14 13 12 11 10 9 7 6 5 5 5 5 5 4 4 4 4 4 4 4 5 5 5 4 3 2 2 2 2 2 2 2 2 1 1 1 2 1 2 3 3
9 8 7 6 5 4 6 6 6 6 2 3 3 4 5 6 4 5 9 10 11 11 11 14 17 18 17 16 16 15 14 15 14 13 13 13 14 16 17 17 16 16 15 16 18 18 17 17 17 18 18 17 16 16 16 16 15 14 13 12 11 10 8 7 6 6 6 5 5 5 5 5 5 5 5 5 5 5 5 4 3 3 2 2 2 2 2 2 2 2 2 2 3 2 3 3 4
8 8 7 7 7 6 8 7 6 6 2 4 4 4 4 5 4 4 7 10 12 13 11 11 15 18 18 17 17 16 16 15 14 14 13 12 14 17 18 17 17 17 16 16 17 17 17 16 17 18 18 18 18 17 17 16 15 14 14 13 12 10 9 9 8 7 6 6 5 5 5 5 6 6 5 5 5 5 4 4 3 3 3 3 3 3 3 3 2 3 3 3 3 3 3 4 5
8 8 7 9 7 6 6 5 5 5 3 3 5 4 3 1 2 2 2 6 10 12 10 8 11 15 16 16 17 17 17 16 14 14 14 14 16 18 18 18 18 18 18 17 17 17 17 17 17 18 18 18 18 18 17 16 15 14 14 14 13 11 10 10 9 8 7 7 6 6 5 5 5 5 4 4 4 5 5 4 4 4 3 3 4 4 4 4 3 3 3 4 4 4 4 5 6
6 6 7 9 7 6 6 7 6 3 4 4 4 3 3 0 4 4 1 3 9 10 10 9 11 14 15 14 16 17 16 16 15 14 14 16 18 19 19 19 19 19 19 18 18 18 18 17 18 18 18 18 18 18 17 16 15 15 14 14 14 13 12 11 10 9 8 8 7 6 6 6 6 5 4 5 5 5 5 5 5 5 4 4 5 4 5 4 3 4 4 4 6 6 5 5 6
2 5 7 4 3 5 4 6 6 4 5 5 3 4 3 1 4 6 5 5 9 10 11 11 11 13 15 14 14 15 15 15 15 14 14 16 18 19 19 20 19 19 19 19 19 19 19 18 18 19 19 18 18 18 17 16 15 15 15 15 15 14 13 13 11 11 10 9 8 8 7 7 6 6 6 6 6 5 6 5 6 5 5 5 5 5 5 5 4 5 5 5 6 6 6 6 7
1 4 3 3 1 4 2 3 5 5 5 4 3 5 4 2 1 4 7 8 9 11 11 11 11 11 14 14 13 14 16 16 15 14 13 15 18 19 19 19 20 20 19 20 20 19 19 19 19 19 20 19 19 18 18 17 16 16 15 16 16 15 14 14 12 11 10 9 9 9 9 8 7 7 6 6 6 6 6 6 6 6 6 5 5 5 5 5 5 6 6 6 7 7 6 7 7
4 3 2 1 4 5 5 4 6 5 5 4 4 6 4 3 1 1 5 7 8 11 12 12 12 12 12 13 14 15 17 16 14 13 12 13 16 19 19 19 19 19 20 20 21 20 20 20 19 19 20 20 19 18 18 18 17 16 16 16 16 16 15 14 12 11 10 9 9 10 9 9 8 8 7 7 7 7 7 7 7 7 7 6 6 6 6 6 6 6 7 7 6 5 6 7 7
4 4 4 3 2 3 3 3 5 6 5 4 5 5 3 1 3 4 2 2 4 8 10 11 13 14 11 11 12 15 16 14 12 12 11 12 16 19 20 20 19 19 20 20 20 20 20 19 19 19 19 19 20 19 18 18 18 17 16 15 16 16 16 14 13 11 11 10 10 10 10 9 9 9 8 8 8 8 7 7 7 7 7 7 6 6 6 6 6 7 7 7 5 4 6 7 7
4 4 5 4 2 2 3 4 5 6 6 4 5 6 2 2 4 6 6 4 4 6 8 10 11 14 13 11 12 13 13 12 11 10 10 12 16 20 20 20 20 19 19 19 19 20 20 19 19 20 20 20 20 20 19 18 18 17 17 16 16 17 16 16 14 13 13 12 11 11 10 10 9 9 9 9 9 9 8 8 7 7 7 6 6 6 6 6 7 7 7 7 6 5 6 7 7
6 5 5 6 4 3 4 5 6 6 7 5 5 6 2 3 3 5 6 5 3 4 6 8 9 12 13 12 12 11 10 11 11 11 11 13 16 19 19 20 19 19 19 19 19 19 19 19 19 20 20 20 20 20 19 19 18 17 17 17 16 16 17 16 16 15 14 13 12 11 11 10 10 10 10 9 9 9 8 8 8 7 7 7 6 7 7 8 8 8 8 8 7 6 6 7 7
Wind_Direction
148 159 166 176 192 246 243 238 217 186 205 111 104 114 95 81 108 114 116 126 125 123 117 121 127 102 75 68 76 94 47 42 44 49 97 99 123 123 121 127 130 130 127 127 127 120 118 129 124 112 106 105 111 116 121 123 129 124 117 120 120 124 128 129 125 129 130 118 115 117 118 118 117 115 109 107 106 103 105 104 101 96 85 85 100 107 108 107 105 100 96 95 96 96 98 98 97
160 166 167 175 200 245 228 218 227 161 154 115 105 102 109 127 128 117 120 127 118 127 134 127 120 87 78 82 79 106 72 45 58 81 96 111 119 112 120 129 129 129 125 127 131 126 122 129 130 119 111 106 110 121 123 129 139 131 129 129 122 124 128 133 134 128 122 120 119 117 120 119 116 114 110 109 107 104 106 107 106 103 98 90 85 97 104 104 104 99 96 95 95 96 97 97 97
176 165 167 181 201 242 260 245 240 144 134 121 107 108 124 131 117 110 112 111 116 133 134 127 118 90 137 121 75 69 81 69 88 101 112 124 122 119 129 129 129 129 124 128 131 128 126 138 146 128 121 126 131 131 125 136 142 138 142 136 126 121 125 143 140 122 119 122 120 118 116 112 111 111 112 110 108 108 108 109 106 102 102 99 81 75 91 99 100 97 96 95 95 97 97 97 96
181 175 189 216 219 225 241 239 258 150 129 122 115 123 130 118 111 105 108 116 129 138 135 137 116 46 41 92 67 62 87 88 98 109 123 130 128 131 134 130 130 128 127 128 127 125 130 146 147 127 129 138 139 134 130 141 138 139 145 132 134 130 133 144 134 121 121 124 121 118 113 110 112 110 114 113 110 108 108 109 104 99 98 97 85 65 69 90 97 98 96 94 95 96 97 96 94
188 194 209 241 262 226 255 243 260 154 106 107 122 130 126 115 113 111 118 127 141 142 143 151 107 95 78 62 35 77 96 100 107 113 117 118 125 133 134 133 132 129 128 127 129 128 135 148 142 128 132 136 132 127 130 137 131 137 143 133 140 139 134 129 122 120 121 125 121 116 112 111 113 113 115 115 113 110 111 110 104 102 98 93 90 79 64 79 92 96 96 98 100 97 95 93 91
202 220 229 246 270 303 246 211 193 107 63 49 119 125 122 121 118 119 124 131 145 146 148 148 102 120 99 65 51 62 86 113 118 115 114 120 128 132 133 135 132 129 129 131 133 134 143 147 141 137 136 133 132 131 132 132 128 130 133 130 135 134 130 122 116 115 117 122 117 114 115 113 114 116 113 109 112 112 112 108 104 105 101 97 96 93 80 78 89 93 95 99 100 98 95 92 89
207 229 236 236 226 221 234 175 110 104 70 31 113 124 122 126 127 128 132 135 149 155 158 133 111 114 97 96 82 62 73 107 119 116 117 126 130 132 135 137 132 129 132 135 134 136 145 144 141 144 142 142 142 142 138 132 127 124 124 122 124 126 127 122 114 113 116 119 119 116 117 116 112 112 112 107 108 110 110 106 105 105 99 98 100 101 91 85 95 94 95 97 99 100 99 94 88
216 217 210 218 197 201 216 117 80 87 97 67 99 118 123 133 137 138 142 144 154 163 166 144 125 104 97 112 93 79 82 95 111 115 121 127 131 135 137 138 134 132 135 137 133 133 140 139 141 142 143 145 143 143 140 133 127 126 127 121 121 122 124 122 117 117 117 117 120 119 116 114 108 107 112 109 106 108 108 106 107 106 102 101 105 108 95 79 95 96 98 99 100 103 103 97 93
226 227 225 223 196 176 151 101 91 81 102 102 94 109 123 138 146 146 149 147 154 163 157 146 133 98 110 104 95 101 94 99 113 119 126 128 132 135 136 139 135 135 139 139 132 130 136 136 133 135 141 140 135 137 139 137 130 130 131 124 122 121 122 123 121 120 118 116 115 114 110 109 108 106 108 108 106 106 106 104 103 103 106 110 115 117 108 93 86 89 96 98 100 101 100 99 97
233 210 254 254 181 146 130 108 110 95 101 109 103 117 125 138 150 148 148 143 151 154 141 141 123 110 116 107 102 107 107 116 121 124 129 128 132 134 133 136 135 139 140 137 134 133 137 133 127 129 133 130 129 134 140 139 132 132 131 127 125 127 127 124 123 120 118 116 113 111 106 105 108 106 106 110 111 107 106 106 104 105 111 115 116 118 118 107 83 83 92 97 98 97 96 96 94
261 182 246 259 156 152 132 114 116 109 109 109 109 121 126 139 146 144 141 137 148 146 140 152 131 119 115 108 102 104 118 130 129 127 131 130 133 132 132 133 136 142 139 137 134 130 131 128 124 125 126 123 125 133 140 134 131 133 132 129 127 131 130 125 124 120 118 116 112 111 107 106 106 105 109 114 113 108 106 108 107 109 113 113 114 122 125 110 92 86 90 94 93 94 96 92 88
283 193 241 240 143 158 118 114 121 120 124 125 124 122 129 148 145 142 141 137 145 147 146 153 135 130 122 111 107 121 132 136 131 130 133 133 132 130 132 132 137 138 136 132 126 126 125 121 118 122 124 118 116 126 130 129 131 131 131 130 127 129 128 126 124 119 118 115 111 109 108 107 104 105 108 110 110 107 105 108 110 112 114 116 124 131 122 108 100 91 86 88 88 90 92 86 86
308 309 256 237 49 99 114 118 128 131 136 129 124 127 143 154 142 137 137 135 143 149 141 142 147 141 120 111 118 135 138 136 133 134 135 135 130 130 132 132 134 131 131 125 119 122 120 114 112 117 117 110 107 111 118 126 130 128 130 127 125 127 125 124 120 116 115 113 112 111 110 106 102 104 105 104 105 105 104 109 113 113 115 121 131 126 113 108 101 91 86 85 87 86 83 82 85
325 312 289 13 79 103 109 120 137 145 139 119 118 130 137 125 119 122 133 135 126 119 114 130 155 137 122 124 135 146 141 139 138 136 135 132 128 130 132 131 131 127 126 121 115 117 118 113 111 115 113 110 111 110 116 124 128 128 126 122 123 124 123 123 118 116 115 114 114 112 110 105 104 103 103 100 99 102 103 106 109 112 117 123 130 121 117 119 110 97 91 87 89 85 81 79 74
318 304 289 151 125 125 96 128 148 158 136 127 132 137 123 92 114 120 117 125 110 105 112 128 153 145 149 153 151 146 141 141 139 136 133 129 128 131 132 131 128 125 123 117 114 116 117 112 113 117 117 118 118 118 120 121 126 125 121 120 122 123 123 122 118 118 118 117 116 114 110 106 104 104 103 100 100 104 103 102 104 111 122 127 131 128 125 122 113 106 101 97 94 85 77 70 63
314 298 260 182 140 156 170 153 150 153 140 134 137 142 126 100 106 99 80 111 121 130 139 137 144 196 165 150 139 138 139 141 140 137 132 129 132 134 136 134 130 128 120 116 114 116 115 112 115 117 118 121 120 119 118 120 123 119 119 118 119 122 122 121 120 120 120 118 117 114 110 106 104 105 105 101 100 101 100 105 112 120 128 129 131 129 123 116 107 105 105 99 86 76 65 57 52
296 272 251 196 140 161 156 145 147 133 135 135 143 153 137 118 104 94 109 126 127 128 118 117 118 118 124 122 129 134 137 140 140 139 135 136 141 143 142 141 139 133 125 121 117 117 117 114 114 112 113 118 120 118 115 119 119 114 116 113 115 119 118 120 121 121 120 117 116 113 110 107 106 105 103 101 97 93 94 103 115 125 127 123 121 117 110 103 99 97 94 87 74 62 55 49 39
290 274 271 119 102 156 126 117 124 138 145 142 156 164 146 137 129 127 137 128 127 130 123 112 101 102 109 118 128 133 137 142 146 146 142 146 148 149 147 145 147 140 133 128 121 121 119 113 111 111 112 115 117 115 115 119 116 113 114 110 113 117 116 120 123 122 121 120 121 115 110 108 107 102 99 100 97 97 101 105 113 118 116 111 107 103 98 93 93 91 86 80 65 60 68 67 39
306 326 349 62 81 123 13 98 136 192 155 144 159 168 155 145 140 156 159 141 143 139 135 129 114 115 120 126 132 135 142 146 150 151 147 149 150 149 146 144 146 142 139 132 125 122 118 114 112 114 116 116 115 114 117 117 116 115 114 113 115 117 117 119 121 122 124 126 124 116 111 108 102 98 99 101 100 104 108 109 110 107 104 104 100 93 91 92 92 89 81 72 63 70 91 107 91
326 340 11 56 51 119 125 129 172 212 151 151 160 163 157 148 147 170 166 150 156 149 145 143 132 134 135 135 137 141 147 149 152 152 147 148 148 146 144 145 145 142 138 129 124 122 120 119 117 117 120 120 117 117 118 117 117 117 117 120 121 122 122 121 121 122 126 127 119 112 109 103 98 98 102 105 107 112 112 109 103 97 96 97 94 91 88 88 90 84 73 74 76 88 109 105 85
330 335 5 51 359 202 115 130 195 209 172 160 156 158 154 151 155 170 165 153 160 158 152 150 145 144 143 142 143 146 149 150 153 152 147 148 148 144 141 141 140 138 135 127 123 124 125 123 120 121 122 123 121 120 121 121 120 119 122 124 124 125 124 123 123 122 124 118 110 108 106 102 103 107 112 116 119 120 115 109 100 96 96 91 92 102 103 97 99 95 82 92 110 111 101 78 72
301 12 18 33 332 334 88 130 209 201 178 159 159 162 151 151 166 178 170 109 107 147 149 146 147 146 146 146 146 149 152 153 154 151 147 146 145 143 137 135 136 139 139 131 128 129 129 126 125 127 128 127 124 122 122 123 121 120 123 123 123 123 122 123 123 123 122 116 112 112 112 112 116 119 122 123 120 115 110 105 101 100 99 97 102 108 108 104 106 107 97 96 101 100 91 78 76
288 79 47 22 1 2 61 183 202 194 173 163 168 158 152 163 165 180 172 45 71 136 141 139 141 146 145 146 149 152 154 154 151 148 147 144 144 144 139 139 140 143 143 136 134 134 132 129 130 132 133 130 127 126 124 123 122 122 123 124 123 123 125 126 125 125 123 119 117 119 120 123 126 127 125 122 115 110 104 100 98 97 100 102 104 105 103 102 99 92 88 84 78 87 91 90 91
284 26 46 23 25 9 74 170 180 184 171 161 161 155 167 176 157 168 157 79 120 134 133 135 138 145 145 147 152 151 153 153 147 144 142 140 141 140 138 139 139 144 145 140 138 138 135 133 135 135 134 131 128 128 125 124 126 127 128 127 123 123 125 123 122 123 121 119 117 120 126 129 131 127 123 118 111 104 96 94 95 97 101 101 102 103 97 93 90 82 80 81 76 79 90 91 94
269 30 51 29 35 22 82 155 169 163 159 152 156 166 170 167 145 151 131 112 133 132 133 137 140 146 148 151 152 151 154 150 144 141 138 138 138 138 138 139 143 148 148 144 140 138 136 136 138 136 132 130 129 128 125 125 127 127 127 124 120 121 120 119 122 123 122 123 120 121 127 129 128 123 119 112 104 96 90 90 93 95 96 97 100 98 90 85 84 81 75 77 76 75 87 88 90
52 58 64 55 62 43 145 154 152 140 141 157 159 162 151 139 151 144 123 128 137 137 140 142 147 151 151 154 151 152 155 150 147 144 140 140 141 142 143 145 149 150 148 146 142 138 139 141 139 134 131 130 129 127 124 123 124 123 123 122 120 121 121 122 127 127 126 127 126 123 119 121 121 117 113 104 97 92 90 89 91 97 96 94 96 91 83 74 73 75 67 69 71 69 82 88 85
91 94 80 71 85 88 150 119 119 119 110 166 171 159 143 154 193 162 135 147 149 146 145 147 153 153 154 154 150 154 156 153 151 146 144 146 150 151 149 153 150 145 148 148 143 140 142 142 138 133 130 130 130 127 125 124 123 123 123 124 123 124 125 126 128 127 124 124 125 121 113 110 110 108 101 94 92 88 90 93 93 97 96 92 86 80 69 58 60 60 55 55 63 74 86 88 88
124 121 97 90 96 99 98 85 89 110 85 219 178 152 147 165 229 182 149 158 160 152 148 154 158 154 155 154 151 156 156 154 154 153 154 153 156 156 154 156 150 145 150 151 145 143 144 141 136 133 132 132 132 129 127 127 126 126 126 127 126 125 126 126 126 123 121 122 123 120 114 103 96 95 85 80 85 84 85 91 95 95 94 89 74 64 54 48 52 54 52 57 65 85 94 92 97
132 183 136 114 106 98 107 103 85 134 98 9 160 155 175 188 204 160 150 160 164 160 155 156 159 155 157 157 154 157 155 157 163 160 157 156 157 158 156 156 153 149 150 150 149 146 143 140 137 135 136 135 135 132 130 130 129 129 129 129 128 126 126 126 125 123 122 125 125 120 115 104 92 87 77 71 78 87 87 88 94 95 87 82 68 51 47 47 47 52 55 67 76 89 95 96 100
150 219 224 142 118 88 109 137 157 149 122 7 232 204 190 189 192 156 154 163 165 168 162 160 161 159 161 161 161 160 157 163 168 161 154 155 158 157 155 154 156 152 148 151 152 149 143 142 142 140 141 141 138 135 134 134 132 132 130 130 130 129 129 127 126 125 126 129 128 122 115 106 96 89 77 65 72 93 98 93 91 92 82 77 69 48 45 47 42 44 48 67 83 86 88 83 81
195 211 232 189 96 88 132 157 176 166 148 198 239 232 190 180 181 164 165 168 170 175 167 166 164 162 166 164 167 163 159 169 167 157 154 158 160 157 155 155 158 153 151 155 153 150 147 145 145 144 146 145 142 140 138 137 134 134 132 132 133 131 131 130 129 131 132 132 130 127 123 118 109 96 82 62 72 97 103 98 87 84 78 73 69 49 41 42 36 38 40 54 79 87 94 87 76
234 244 229 185 57 169 157 160 191 187 157 173 211 228 180 173 172 166 175 175 178 182 171 172 169 165 170 167 171 167 160 168 168 156 155 162 161 157 157 157 160 157 155 156 153 153 150 147 148 147 148 147 145 144 141 139 136 135 135 135 135 134 134 131 132 135 134 134 134 135 133 129 124 106 91 70 80 101 101 97 87 81 76 70 65 51 43 38 34 39 35 39 62 76 102 98 89
211 263 277 11 42 160 147 150 195 194 155 177 212 227 137 155 176 172 181 182 186 189 177 176 174 169 172 171 173 168 160 164 169 161 157 165 164 159 160 159 161 160 157 157 156 157 153 151 152 150 150 150 149 148 145 143 140 138 138 138 138 138 138 135 135 136 136 138 137 138 140 138 134 121 108 94 88 101 101 95 89 83 76 72 64 55 47 37 32 37 34 32 43 41 76 92 95
171 239 280 281 336 76 128 142 167 182 180 191 210 223 204 144 180 187 187 187 191 194 184 179 177 172 172 177 174 167 166 166 169 165 160 165 164 161 161 159 161 161 160 160 159 160 156 154 156 153 153 153 152 152 149 146 143 142 142 142 141 141 141 139 139 138 139 143 139 140 145 140 134 130 119 109 102 101 100 92 85 79 75 71 65 62 49 34 25 27 32 29 27 22 35 63 69
33 6 326 267 248 67 50 67 137 180 209 207 200 212 217 176 173 201 197 192 198 197 189 183 178 174 173 180 177 168 169 171 167 164 162 162 163 164 162 161 163 163 164 163 161 162 159 157 157 155 156 156 154 154 153 150 148 150 149 148 148 148 144 140 142 142 143 144 140 140 142 136 129 127 120 111 109 112 108 97 85 77 76 70 60 63 53 34 21 17 24 24 21 28 35 45 49
349 341 326 314 317 75 58 54 110 189 232 220 213 219 218 197 183 205 205 197 203 200 191 189 181 176 176 181 180 170 171 171 163 161 161 161 164 165 162 164 165 165 166 164 163 164 162 161 159 160 161 158 156 157 158 158 157 158 158 155 155 156 151 147 147 145 144 144 140 141 138 129 124 124 122 115 110 111 105 95 85 75 74 73 58 54 51 36 22 16 16 12 15 38 53 60 45
292 302 301 309 308 66 82 81 102 222 251 209 215 228 220 209 192 198 209 201 204 203 192 189 186 179 178 183 180 172 173 168 160 160 160 161 165 166 164 166 167 166 166 165 169 169 166 166 163 164 165 163 163 164 166 167 165 165 165 164 163 159 154 153 153 148 144 140 135 136 136 128 124 126 126 124 118 114 107 92 80 70 69 71 58 49 48 38 25 20 10 356 13 35 40 62 55
268 284 295 293 277 41 64 55 93 204 261 167 183 229 220 207 194 192 208 207 205 205 196 190 188 183 179 184 180 174 174 167 160 161 164 164 166 168 168 169 170 169 169 170 172 172 170 170 168 167 168 168 171 170 172 173 171 170 169 167 163 157 157 159 159 156 146 139 135 136 139 136 130 132 136 135 135 132 117 92 80 73 68 65 60 54 52 45 30 19 9 0 14 38 45 50 47
260 265 276 275 250 63 82 99 115 181 260 141 147 234 230 195 185 191 209 218 213 208 205 195 189 186 181 184 181 177 178 170 165 167 169 170 168 171 171 172 175 173 172 173 173 173 173 173 171 172 171 172 175 175 176 176 172 172 170 166 163 159 162 160 153 155 151 146 148 151 154 154 150 150 148 142 143 139 116 94 85 79 71 62 61 61 52 50 38 18 16 11 351 2 76 63 34
249 249 259 272 324 313 297 131 132 190 259 298 186 244 242 184 180 197 215 227 230 231 229 210 194 193 187 184 183 181 181 174 172 174 173 172 170 174 176 175 177 175 175 176 175 174 176 176 174 174 174 174 176 177 179 177 171 170 168 163 163 157 156 155 149 157 164 161 163 167 170 171 168 162 157 149 145 134 116 101 87 82 77 66 65 72 67 56 45 24 28 24 348 340 42 63 45
241 240 248 267 294 307 318 58 141 212 226 241 244 245 229 191 190 202 211 220 242 257 248 226 202 200 194 189 187 185 184 180 181 180 176 174 174 178 179 177 178 178 179 180 178 177 177 177 176 176 176 176 177 178 178 176 174 174 169 165 169 164 159 165 169 172 173 177 179 173 168 171 173 169 163 158 147 135 126 106 92 94 85 75 80 88 76 57 46 35 34 32 7 353 357 12 36
248 236 237 258 284 299 291 246 248 251 214 184 227 267 207 181 195 201 189 195 212 214 222 221 207 200 198 196 193 188 185 186 189 185 180 178 178 179 179 180 181 181 182 183 182 180 178 177 177 178 178 179 180 180 180 179 179 181 180 177 180 178 174 175 179 177 172 177 175 160 158 165 172 175 174 170 155 145 141 111 97 102 91 85 91 77 77 72 83 59 35 17 20 14 352 341 0
247 215 189 234 245 243 239 257 267 281 311 128 234 282 306 174 201 202 178 189 210 208 207 213 209 203 200 198 197 191 186 189 192 188 187 184 181 180 181 184 186 183 182 184 183 183 181 177 177 179 181 182 182 181 183 185 186 188 189 188 186 184 181 176 178 176 166 166 158 149 154 161 172 184 180 176 173 163 152 121 96 99 100 105 102 75 72 30 31 61 42 18 17 17 1 341 339
251 85 95 223 217 216 227 266 271 294 324 164 216 264 282 248 200 189 177 189 209 212 209 208 209 211 205 200 201 195 191 191 190 190 192 190 185 184 184 187 189 185 182 183 184 183 182 179 178 180 182 185 183 181 185 188 190 191 193 195 193 191 187 175 177 181 167 164 161 156 158 158 170 187 186 186 191 190 190 163 114 108 96 114 138 158 126 26 27 44 36 26 17 4 5 356 343
254 82 212 219 207 205 218 266 275 301 294 262 196 200 261 276 156 172 181 194 213 215 212 207 206 208 204 204 204 198 195 195 194 193 193 192 190 188 187 188 189 186 182 183 183 182 182 181 180 181 183 185 186 184 185 189 193 194 196 199 197 196 196 184 184 188 181 186 188 177 172 172 177 186 191 197 202 204 208 207 198 183 179 179 197 202 128 34 17 19 4 4 5 357 355 351 342
208 169 211 190 181 195 215 261 276 278 275 286 184 179 253 295 150 167 182 200 217 214 212 210 206 203 200 204 206 201 197 197 198 196 194 195 194 191 189 187 187 186 182 182 183 182 181 182 181 184 185 186 188 187 188 191 195 198 202 203 200 200 202 201 198 198 199 205 206 199 196 202 200 193 192 196 205 208 206 210 217 216 220 215 220 240 248 261 292 267 267 344 348 345 334 319 311
176 189 209 203 203 206 225 241 263 265 259 300 127 181 243 289 159 169 187 204 208 200 205 208 203 201 200 201 204 202 198 197 199 197 196 197 196 194 191 187 186 186 182 181 183 183 182 182 183 186 188 189 190 190 191 194 197 202 207 207 207 209 209 212 214 213 210 210 215 214 207 211 217 211 201 197 204 206 200 211 223 225 232 231 238 250 251 257 263 247 218 275 307 316 310 306 301
190 205 213 213 219 218 235 225 225 254 250 84 108 191 226 261 198 183 197 204 197 188 200 205 198 197 199 199 202 203 199 197 199 198 197 197 197 194 191 188 187 185 183 183 184 184 183 184 184 186 190 192 192 192 194 197 200 204 208 209 212 216 218 221 223 223 218 215 221 218 210 213 217 219 215 207 210 204 195 207 224 234 238 238 248 257 265 284 295 294 285 272 275 280 289 295 291
206 213 207 214 221 213 238 234 221 244 239 124 166 193 224 253 257 220 207 203 193 185 198 210 201 194 195 197 199 202 200 197 197 198 198 198 198 194 191 189 188 187 187 187 186 184 184 186 186 187 190 192 193 194 195 198 203 205 206 208 211 215 220 226 230 229 223 221 224 219 214 215 215 217 219 215 216 210 203 213 223 228 237 239 250 261 271 288 296 291 291 283 279 275 280 285 281
216 216 207 218 226 226 235 237 234 243 219 139 170 204 242 255 253 232 220 210 195 183 188 213 212 199 194 195 197 200 201 198 197 197 198 199 198 195 191 189 188 189 190 190 189 187 186 187 187 189 191 192 195 196 197 200 203 206 206 207 209 212 216 221 227 229 225 223 226 226 226 220 214 214 216 218 220 217 216 223 227 231 241 243 246 253 256 266 273 279 285 283 281 284 286 283 277
221 221 219 227 236 248 250 248 246 254 255 170 163 199 256 262 117 113 244 214 188 177 176 199 221 214 203 196 197 200 200 199 198 198 197 199 198 196 193 191 190 191 192 193 192 189 189 189 189 191 191 192 196 198 199 202 204 206 206 208 210 212 214 218 222 225 226 227 228 230 232 229 223 215 210 213 216 218 220 222 229 236 241 247 250 250 251 253 253 259 269 275 277 276 277 279 279
212 221 231 235 247 257 260 268 263 264 281 243 190 225 274 58 135 143 154 173 165 166 170 184 213 223 219 209 201 200 200 198 197 199 198 197 197 197 195 194 193 193 193 194 194 192 192 192 190 192 193 194 197 199 202 205 206 207 207 209 211 212 216 217 218 221 224 229 232 231 229 229 228 221 212 214 212 212 216 220 230 234 234 245 249 246 249 248 247 255 257 260 268 269 268 273 278
172 224 231 222 277 275 261 272 261 236 262 261 231 254 262 205 175 167 163 166 164 168 177 187 202 217 223 219 205 199 199 200 198 198 198 196 196 197 197 198 196 195 195 195 195 193 194 194 192 192 194 195 197 199 203 206 207 209 210 212 214 214 217 218 218 221 222 225 226 226 227 223 220 220 219 218 213 210 214 218 231 236 233 242 245 240 243 242 242 254 255 254 265 269 268 268 272
246 230 229 117 249 264 209 261 261 239 251 268 268 270 271 278 223 167 179 191 184 180 182 187 194 208 220 218 208 201 197 199 199 196 195 194 195 196 198 200 199 197 195 195 196 194 194 196 195 195 196 197 198 199 202 204 206 209 212 213 215 216 218 220 221 222 221 221 218 218 220 217 213 215 216 217 212 211 216 219 228 237 237 241 244 238 239 240 244 252 257 259 264 265 267 269 270
250 254 277 219 235 233 195 230 267 258 257 268 267 270 274 282 322 149 197 205 201 192 184 188 192 197 216 219 211 205 200 198 194 189 190 193 195 196 197 200 199 198 196 194 195 195 195 197 198 199 199 199 200 200 201 204 206 209 211 212 214 216 218 220 221 221 220 220 216 213 214 213 212 211 209 213 216 217 217 217 222 231 235 236 236 236 238 239 246 254 257 258 255 250 258 267 269
261 271 255 231 255 272 221 228 264 263 261 271 279 275 267 306 349 352 324 265 236 211 189 192 196 191 202 217 214 206 202 193 183 182 188 193 198 198 197 199 198 197 197 195 195 197 199 200 199 200 202 202 203 203 202 204 206 209 210 210 211 212 215 217 218 218 218 219 216 213 212 211 211 212 210 210 215 219 220 220 225 228 231 233 232 235 240 239 243 252 257 261 259 252 259 265 268
214 234 237 220 189 252 252 235 248 263 265 260 274 276 261 59 0 335 326 318 285 244 207 200 201 192 191 206 214 207 195 183 174 180 187 191 200 202 199 199 198 197 198 196 196 200 203 202 199 199 202 203 204 205 204 205 207 209 210 210 209 208 211 214 215 216 217 217 214 213 214 213 211 212 212 211 213 217 218 222 228 228 230 232 230 233 240 240 243 247 249 254 254 251 258 263 266
202 193 217 233 206 200 233 238 245 263 270 264 277 287 310 45 1 327 323 323 314 270 227 206 203 197 188 194 211 206 189 184 181 183 193 195 201 204 200 198 199 199 198 197 197 200 202 203 202 200 202 203 204 205 205 205 207 209 210 210 210 208 208 211 215 215 216 215 212 211 212 213 213 211 211 213 215 215 216 218 221 221 223 226 224 229 238 240 242 244 246 251 248 243 248 256 260